User: anonymous   Login
Location: Unspecified
(0.0000°N, 0.0000°E)
Time: 08:30:06
(UTC+01:00)
Language:

YAOGAN 3 - Orbit

View from above orbital plane
View from above orbital plane
View from above satellite
View from above satellite

Ground track
Ground track

The orbit data is extracted from the following two-line orbital elements,

1 32289U 07055A   15057.74723946  .00000928  00000-0  12870-3 0  9991
2 32289 097.9595 052.8619 0001755 102.4482 257.6930 14.80299033394221
Epoch (UTC): 26 February 2015 17:56:01
Eccentricity: 0.0001755
inclination: 97.9595°
perigee height: 627 km
apogee height: 629 km
right ascension of ascending node: 52.8619°
argument of perigee: 102.4482°
revolutions per day: 14.80299033
mean anomaly at epoch: 257.6930°
orbit number at epoch: 39422

The dashed part of the orbit path shows where the satellite is in the earth's shadow,  

DLR